Skip to main content

Pico (Aeródromo)

ID 1200504 · 38.5522, -28.4414 map

Latest reading · 2026-05-09 18:00 (Europe/Lisbon)

Temperature
16.5 °C
Humidity
71 %
Pressure
1,020.1 hPa
Precipitation
0.0 mm
Radiation
2,539 W/m²
Wind speed
18.7 km/h
Wind direction
NE · North-east

24-hour history

Time (Europe/Lisbon) Temp Humidity Pressure Rain Wind Dir
2026-05-09 18:00 16.5 °C 71 % 1,020.1 0.0 mm 18.7 km/h NE
2026-05-09 17:00 15.3 °C 76 % 1,020.4 0.0 mm 22.3 km/h N
2026-05-09 16:00 15.2 °C 70 % 1,020.4 0.0 mm 20.9 km/h N
2026-05-09 15:00 14.8 °C 67 % 1,020.7 0.0 mm 23.0 km/h N
2026-05-09 14:00 15.1 °C 60 % 1,020.9 0.0 mm 22.3 km/h N
2026-05-09 13:00 14.9 °C 57 % 1,021.1 0.0 mm 20.9 km/h N
2026-05-09 12:00 14.6 °C 54 % 1,021.0 0.0 mm 23.0 km/h N
2026-05-09 11:00 14.1 °C 53 % 1,020.8 0.0 mm 22.7 km/h N
2026-05-09 10:00 13.6 °C 59 % 1,020.6 0.0 mm 24.8 km/h N
2026-05-09 09:00 13.5 °C 60 % 1,020.1 0.0 mm 20.5 km/h N
2026-05-09 08:00 12.9 °C 68 % 1,019.4 0.0 mm 23.0 km/h NE
2026-05-09 07:00 12.9 °C 68 % 1,019.4 0.0 mm 13.3 km/h NE
2026-05-09 06:00 13.2 °C 68 % 1,019.7 0.0 mm 14.0 km/h NE
2026-05-09 05:00 13.1 °C 69 % 1,019.8 0.0 mm 18.7 km/h NE
2026-05-09 04:00 13.4 °C 57 % 1,020.1 0.0 mm 18.4 km/h NE
2026-05-09 03:00 13.5 °C 59 % 1,020.4 0.0 mm 20.9 km/h N
2026-05-09 02:00 14.0 °C 62 % 1,020.7 0.0 mm 22.7 km/h N
2026-05-09 01:00 13.8 °C 73 % 1,020.8 0.0 mm 23.0 km/h NE
2026-05-09 00:00 13.8 °C 78 % 1,020.5 0.0 mm 22.3 km/h NE
2026-05-08 23:00 14.5 °C 74 % 1,019.9 0.4 mm 20.5 km/h NE
2026-05-08 22:00 15.2 °C 71 % 1,019.1 0.0 mm 18.4 km/h N
2026-05-08 21:00 15.9 °C 69 % 1,018.7 0.0 mm 17.6 km/h N
2026-05-08 20:00 16.1 °C 73 % 1,018.6 0.0 mm 16.9 km/h N